Wind_Speed
8 8 8 7 7 6 6 6 6 7 7 7 8 9 10 12 13 14 15 16 17 18 19 20 21 20 18 16 15 14 14 14 12 12 12 12 12 11 9 8 7 7 6 5 5 3 1 1 1 2 4 6 6 2 4 6 8 9 11 14 11 9 8 8 10 8 5 6 6 5 4 3 2 3 1 0 1 1 2 3 3 3 4 5 5 6 7 6
8 8 8 8 7 7 7 7 7 7 7 8 9 10 11 12 14 15 16 17 18 19 21 22 22 21 19 17 15 14 14 14 13 15 14 12 12 12 11 9 8 7 6 6 5 3 2 2 2 3 4 5 5 3 3 4 4 5 8 13 13 9 5 5 7 6 4 5 6 5 4 3 2 3 1 1 1 2 3 3 3 3 4 5 5 5 6 6
9 9 9 8 8 8 8 8 8 8 8 8 9 10 11 13 15 16 17 18 19 20 22 24 24 22 20 17 16 14 13 14 16 17 14 12 13 12 11 10 9 8 7 7 6 5 3 3 3 5 4 4 4 4 2 2 2 3 7 11 12 12 7 5 5 4 4 4 6 5 3 3 2 2 1 1 1 2 3 4 3 4 5 5 5 5 6 7
9 9 9 9 9 9 8 9 9 9 9 9 10 11 12 14 16 17 18 18 20 21 24 25 26 23 20 17 15 14 12 15 18 17 15 14 13 13 12 12 10 9 9 8 7 5 4 4 5 6 5 4 4 4 2 1 1 2 6 9 9 10 8 7 6 3 3 1 4 5 3 2 2 1 1 1 1 2 3 5 4 4 5 6 5 5 6 6
9 9 9 9 9 9 9 9 9 9 9 10 10 11 13 16 17 18 19 19 21 23 25 27 26 24 20 17 15 13 12 15 17 17 16 16 14 13 13 12 11 10 10 9 8 6 5 6 6 6 6 5 5 4 2 1 1 2 4 6 6 7 6 6 6 6 4 2 1 4 4 4 3 2 2 2 2 3 4 5 5 5 5 5 6 6 5 6
9 9 10 10 10 10 10 10 10 10 10 10 11 12 15 17 18 19 20 20 22 24 27 28 26 23 19 16 14 12 13 15 15 16 17 16 15 14 13 13 12 11 10 10 9 7 6 7 7 7 8 6 6 5 2 2 2 1 2 2 3 5 5 4 3 5 7 4 2 2 4 4 4 3 3 4 5 5 4 5 6 5 4 5 5 5 5 5
9 10 10 10 11 11 11 11 11 11 11 11 12 14 16 18 19 20 20 21 23 26 28 27 25 22 18 15 13 12 13 15 13 14 16 16 15 15 14 14 13 12 12 11 10 8 7 8 8 9 9 8 7 7 3 4 4 3 2 1 2 3 4 5 4 5 6 4 2 1 1 2 1 1 3 6 7 7 5 6 7 5 4 5 4 4 4 4
10 10 10 11 11 11 11 11 11 11 11 12 13 15 17 19 20 20 21 23 25 27 28 27 23 20 17 15 12 12 14 14 12 13 15 16 16 15 14 14 14 13 13 13 12 9 8 10 10 11 11 10 8 9 7 5 4 4 3 2 3 2 3 5 5 5 5 5 3 4 3 2 2 1 3 5 8 9 7 7 7 5 5 5 4 3 3 4
10 10 11 12 12 12 12 12 12 12 12 12 14 16 18 19 20 21 22 24 26 28 27 25 21 18 16 14 12 12 13 13 13 13 14 16 16 15 14 14 15 15 14 14 13 12 11 11 8 7 8 8 7 9 10 6 3 5 4 3 4 2 2 3 5 5 5 5 4 5 6 6 3 2 4 5 7 9 8 8 8 6 5 5 5 4 3 4
10 11 11 12 13 13 13 13 12 12 12 13 15 17 19 19 20 21 23 24 26 28 26 22 19 17 16 14 12 12 12 12 13 13 14 16 16 16 14 14 14 15 15 15 15 14 12 9 7 7 9 11 11 10 9 6 5 6 6 5 5 5 4 2 3 5 6 5 4 4 7 8 6 5 5 5 6 8 8 8 8 8 7 6 4 4 3 4
11 11 12 12 13 13 13 13 12 12 13 14 16 18 19 19 20 21 23 25 27 27 24 20 18 17 16 14 13 12 11 12 13 12 13 15 16 17 15 14 14 15 15 16 16 15 12 11 12 11 10 11 12 12 10 9 10 9 8 6 5 7 5 2 2 4 6 6 5 5 8 9 9 9 7 7 7 8 8 7 9 10 9 7 5 4 4 3
11 11 12 12 13 13 13 13 12 13 14 15 17 18 19 20 21 22 23 25 26 25 21 18 18 17 16 15 13 12 11 12 12 13 13 14 16 17 16 15 14 14 15 16 15 15 13 12 14 10 9 11 11 11 11 10 10 9 9 7 5 8 6 4 4 4 4 5 5 6 7 9 10 10 9 8 8 10 9 8 9 9 8 7 6 5 5 3
12 12 12 12 13 13 13 13 12 13 14 16 17 18 19 20 21 22 23 25 25 23 20 18 18 17 16 15 14 13 12 11 12 13 13 14 15 16 17 16 15 15 15 15 15 15 13 13 14 11 11 11 9 9 9 8 9 9 9 8 6 7 7 7 6 5 3 3 5 6 6 7 9 10 10 8 9 10 9 8 8 7 7 8 7 6 5 4
12 12 12 12 13 13 12 12 12 13 15 16 17 18 19 20 21 21 23 24 23 21 19 18 18 17 16 15 13 12 11 11 10 11 12 12 13 15 16 16 16 16 15 16 15 14 14 14 14 12 12 13 12 11 9 8 10 10 9 9 7 5 6 7 8 7 5 5 6 6 7 7 7 8 10 10 10 10 10 8 8 7 8 9 8 7 6 5
11 11 12 12 12 12 12 12 12 14 15 16 17 18 19 19 20 21 22 23 22 20 18 18 19 17 15 14 12 11 10 9 9 9 10 10 11 13 14 16 16 15 15 15 14 14 14 14 14 13 14 15 12 11 10 9 9 10 8 7 8 7 6 7 8 10 8 7 7 6 7 8 6 7 9 10 11 11 9 8 6 6 7 7 8 8 7 6
11 11 12 12 12 12 12 12 13 14 15 16 17 18 19 19 20 21 22 21 20 19 18 18 18 17 15 12 10 9 9 8 8 8 8 9 9 10 12 14 15 15 14 14 14 14 13 14 13 13 14 12 10 11 9 8 7 8 6 7 10 9 7 8 9 10 9 8 7 5 6 7 6 7 9 10 10 11 8 7 7 7 6 7 9 9 7 6
12 11 11 12 11 11 11 12 13 14 15 16 17 18 18 19 20 20 21 20 19 18 17 18 18 17 14 11 9 8 7 7 6 6 6 7 8 9 10 11 12 12 12 12 11 11 11 12 11 12 13 11 11 10 8 9 6 1 5 10 13 12 10 8 9 11 10 9 8 5 5 6 6 7 8 9 10 10 8 7 8 8 8 8 10 9 7 7
12 11 11 11 11 11 12 12 13 14 15 16 17 17 18 19 19 20 20 19 19 18 17 17 18 16 13 11 9 7 7 6 5 5 4 5 6 7 7 7 8 8 8 9 8 8 8 8 9 9 8 9 12 11 9 12 8 3 9 14 16 16 13 9 10 12 11 9 9 7 6 6 6 7 8 9 9 10 9 8 8 8 9 9 11 12 9 8
11 10 10 10 11 11 12 13 13 14 15 16 16 17 18 18 19 19 19 18 17 17 17 17 17 15 14 12 10 8 7 5 4 3 3 4 4 5 6 6 6 5 5 6 7 7 5 5 7 7 10 12 12 13 13 9 8 9 14 17 20 20 15 11 11 10 10 10 10 10 9 7 7 8 8 9 9 9 9 8 8 9 10 9 11 14 11 9
10 10 10 10 11 11 12 13 14 14 15 16 16 17 17 18 18 18 18 17 16 16 16 16 15 14 12 11 10 9 7 5 4 2 2 3 4 4 6 7 6 6 6 6 7 8 7 4 5 6 11 10 3 9 13 11 13 18 18 20 24 23 18 13 8 7 10 11 11 13 12 9 8 9 9 9 9 9 9 8 9 9 9 8 11 15 12 10
10 10 9 10 11 12 12 13 14 15 15 16 16 17 17 17 17 17 17 16 16 16 15 15 15 14 12 10 9 8 7 6 4 2 2 3 5 5 6 8 8 7 7 7 8 9 10 7 8 8 8 9 7 14 13 12 16 17 15 19 23 25 24 16 8 8 12 13 13 15 13 9 10 10 10 10 10 10 10 9 9 8 7 9 11 16 14 10
10 10 10 10 11 12 13 13 14 15 15 16 16 17 17 17 16 16 16 15 16 16 15 14 12 11 11 10 9 8 7 6 4 2 1 3 4 5 5 6 7 8 8 7 6 7 9 7 6 7 4 7 13 13 9 9 10 9 10 14 14 18 21 16 10 10 14 17 16 14 11 9 10 11 10 11 11 11 10 9 10 9 7 8 11 17 15 11
10 10 10 11 11 13 13 14 15 15 15 16 16 16 16 16 16 16 15 15 15 15 14 12 9 9 9 9 8 8 7 6 4 2 0 2 3 4 5 5 5 9 8 6 6 5 6 4 4 8 3 4 10 9 6 5 4 5 8 10 10 11 11 10 11 12 15 18 17 15 12 10 10 10 11 12 11 11 10 9 10 10 7 7 10 18 16 12
11 11 11 11 12 13 14 15 15 15 16 16 16 16 16 16 16 16 15 14 15 14 13 12 11 12 12 10 8 7 7 7 4 2 1 1 2 3 4 4 6 9 8 5 5 3 5 6 4 5 3 3 6 8 7 5 4 4 2 1 5 6 6 9 14 16 17 18 18 17 15 13 12 11 12 12 12 12 11 10 10 10 8 5 7 17 18 14
12 11 11 12 12 13 14 15 15 15 16 16 15 15 15 15 16 16 15 14 13 11 9 11 11 10 12 12 10 8 6 5 4 2 1 1 2 2 3 4 5 5 6 7 6 4 6 6 4 3 2 3 5 8 9 7 6 3 5 5 5 6 6 11 17 18 16 18 19 18 16 14 12 13 13 12 12 12 11 11 10 9 8 4 6 16 20 17
13 12 12 12 12 13 14 15 15 16 16 16 15 15 15 15 15 15 16 15 12 8 7 10 8 7 9 10 10 9 6 3 3 2 1 1 1 1 2 4 4 4 7 10 8 5 4 3 4 3 3 5 6 9 9 8 7 5 3 9 13 10 10 11 14 14 13 16 19 17 16 14 12 13 13 12 12 11 10 9 9 9 8 5 6 15 21 19
14 13 13 13 13 13 14 15 15 16 16 15 15 14 14 14 15 14 16 16 14 12 10 9 9 9 9 10 11 10 7 3 2 1 1 1 1 2 1 2 4 7 9 9 6 3 3 2 1 0 3 6 8 9 9 8 9 11 13 20 21 17 17 17 17 16 15 17 18 17 18 18 16 13 12 13 13 13 12 10 8 9 9 7 7 14 21 20
15 14 14 14 14 14 14 15 15 16 16 15 14 14 14 14 14 13 14 15 13 13 12 9 9 12 12 12 12 10 8 5 1 1 0 1 2 2 2 1 2 6 7 4 2 2 3 4 2 2 2 7 9 9 6 2 8 16 21 22 18 17 18 18 18 16 16 17 16 16 17 19 19 16 13 13 13 12 13 12 10 10 10 9 7 11 19 21
17 16 15 15 14 14 15 14 15 16 15 15 15 14 13 13 13 13 13 14 12 11 11 11 9 9 10 12 12 11 7 4 1 0 1 1 2 2 3 2 3 6 4 3 5 5 7 6 3 2 2 7 9 7 7 2 7 15 21 22 17 12 14 17 18 17 18 18 16 15 17 18 20 18 17 15 13 12 12 12 11 11 11 11 9 9 14 18
18 17 16 16 15 15 15 15 15 15 15 15 15 13 13 13 13 12 11 11 11 10 10 9 7 7 8 9 10 8 4 2 1 1 1 1 1 1 3 3 3 7 6 5 6 8 12 8 4 3 2 9 9 6 8 8 8 12 14 17 15 12 12 11 10 12 13 11 10 11 14 17 20 18 18 18 15 13 12 12 12 12 12 12 12 11 12 15
19 18 17 17 16 16 16 15 15 15 15 15 14 14 13 12 12 12 10 10 9 8 8 7 6 8 10 11 10 7 6 5 2 2 2 2 2 3 4 4 3 5 3 3 5 10 16 9 4 4 4 10 9 6 9 9 8 9 7 8 8 7 7 5 6 9 7 2 2 6 9 13 18 17 16 19 18 16 14 13 12 11 12 13 14 14 14 14
20 19 18 17 17 17 16 16 15 15 15 14 14 14 12 12 12 11 10 9 5 4 9 10 8 10 13 13 10 8 10 8 3 2 1 0 3 6 5 2 1 0 1 4 8 12 17 13 12 12 7 5 6 5 7 7 6 3 1 5 10 7 2 2 4 7 5 3 2 6 11 13 17 18 16 17 18 18 16 14 13 12 11 12 14 16 16 15
22 21 20 19 18 18 17 17 16 15 15 15 14 13 12 12 10 10 11 8 8 10 13 13 13 12 10 8 8 8 9 7 4 3 2 3 4 2 5 5 1 1 5 12 14 7 10 14 19 19 8 1 4 8 7 7 6 4 5 5 8 8 7 9 8 6 5 6 5 10 17 17 17 20 19 18 16 17 17 16 15 14 14 14 15 16 16 16
23 22 21 20 19 19 19 18 17 16 16 16 14 13 13 11 8 9 8 5 7 15 18 12 11 11 5 5 7 8 8 6 5 5 3 2 11 8 10 8 2 3 8 13 14 14 7 8 12 13 9 7 12 12 7 6 7 10 11 6 2 6 10 12 13 14 15 16 10 8 14 16 17 19 17 17 16 16 18 18 17 16 16 15 16 17 16 17
25 24 22 22 21 20 20 19 18 18 17 16 15 13 13 12 10 10 4 3 3 10 12 9 6 6 4 4 4 6 9 8 6 7 6 3 9 8 13 11 4 4 6 7 10 18 14 4 8 10 15 17 16 12 5 5 8 8 8 8 6 9 11 10 12 15 19 17 8 7 13 14 17 19 17 15 15 15 18 19 19 17 16 16 16 17 17 17
26 26 25 23 23 22 21 21 20 19 18 17 15 13 13 13 12 9 4 4 10 15 11 10 7 5 7 9 9 5 8 11 10 7 3 4 5 7 16 11 3 3 3 5 8 11 11 6 9 10 14 15 11 8 5 6 6 5 5 7 8 10 10 9 10 14 20 16 6 7 13 13 16 20 19 17 16 17 19 20 19 19 19 18 18 18 18 18
28 27 27 25 24 24 23 22 21 20 19 18 15 13 14 14 12 13 12 8 12 19 15 10 8 4 4 6 11 15 12 10 6 3 1 5 5 10 16 11 8 8 6 9 12 11 7 5 7 9 11 12 8 8 8 7 7 9 11 9 7 10 12 9 8 11 17 17 12 12 15 14 17 20 18 17 18 18 19 21 20 20 20 21 20 20 20 21
30 29 29 26 25 25 24 23 22 21 20 18 16 14 15 15 13 16 18 12 7 12 14 12 10 3 8 7 6 14 10 8 6 1 2 6 7 8 12 14 12 11 12 14 13 11 8 7 6 3 5 9 6 6 9 10 9 9 10 9 11 14 12 7 6 7 11 15 15 16 18 16 17 19 18 19 19 18 18 19 20 21 21 21 21 20 20 22
32 31 31 28 25 26 26 24 24 22 21 18 16 16 16 17 17 15 16 14 9 10 11 12 11 4 8 5 4 7 5 3 6 3 3 10 13 9 12 17 15 10 11 13 13 10 9 10 8 4 2 3 5 5 8 11 12 10 8 9 13 13 9 8 9 10 10 11 12 17 22 21 18 17 17 17 18 18 18 19 19 21 22 21 21 19 19 20
34 34 35 31 26 28 28 25 24 23 21 19 18 18 18 18 19 16 12 15 17 15 12 12 12 9 12 12 9 11 15 11 7 8 10 12 13 14 17 18 15 11 10 11 14 14 13 15 14 10 8 4 3 9 14 15 16 16 14 15 18 17 16 16 16 14 11 11 11 17 23 24 22 21 20 18 17 17 16 17 18 20 21 21 21 19 18 18
34 35 38 34 28 30 30 26 25 24 21 21 19 19 18 17 18 14 9 12 15 16 15 14 14 12 15 20 16 11 15 14 10 12 14 14 14 18 20 13 7 7 7 11 16 15 13 15 15 15 13 9 7 11 14 18 20 21 21 21 22 22 23 21 18 14 12 12 13 15 20 23 22 23 22 20 20 19 17 16 15 16 18 19 20 21 19 17
34 35 38 36 29 30 31 27 26 26 23 22 20 20 21 19 18 18 15 15 13 13 15 14 14 15 15 17 15 13 17 17 9 6 8 12 16 21 22 13 8 8 5 12 16 12 11 13 14 16 16 13 9 6 8 15 18 19 20 18 17 20 20 18 15 13 13 14 14 15 19 21 21 23 22 19 20 20 18 18 18 17 16 18 19 20 21 19
33 34 36 35 30 29 31 29 28 27 24 23 22 22 23 21 20 21 21 22 20 16 15 15 16 17 17 16 15 17 21 19 10 6 8 14 18 21 23 15 11 14 13 16 16 10 11 13 11 11 12 11 9 6 9 14 12 13 15 12 11 16 17 16 14 13 12 13 16 18 20 21 22 23 23 21 20 17 14 15 17 18 17 18 19 19 21 22
30 32 33 34 30 28 31 32 31 30 27 25 24 23 23 23 23 22 22 23 24 21 18 17 16 16 17 19 16 17 18 15 12 14 19 22 21 23 23 16 12 16 17 18 17 14 13 12 8 7 7 9 13 14 13 15 12 11 13 12 15 18 19 18 15 12 11 13 16 19 22 24 24 22 23 23 21 19 16 15 14 16 17 18 19 20 21 22
28 29 30 32 30 27 31 34 33 32 29 28 28 26 25 25 24 25 24 22 22 23 21 18 16 15 16 19 18 17 18 16 15 17 21 22 21 23 25 20 15 16 16 15 15 16 16 12 9 9 7 10 16 17 16 16 16 16 18 18 19 22 24 20 12 11 14 17 19 20 21 24 24 22 22 23 22 24 25 21 15 14 17 18 19 21 22 22
27 28 29 32 31 28 31 34 33 32 31 30 30 28 28 27 23 22 25 22 21 25 24 19 18 17 16 17 18 19 21 20 18 16 16 17 17 20 24 21 15 13 15 16 14 15 15 12 10 11 8 11 16 17 15 16 16 15 22 26 24 24 26 24 19 19 19 18 20 22 22 23 23 22 21 23 24 25 27 25 21 17 17 17 18 20 22 24
28 29 31 33 32 28 28 31 32 31 31 31 30 28 27 26 20 17 20 20 19 25 26 20 19 19 15 11 13 15 19 21 22 21 19 18 16 18 23 24 20 15 14 15 14 14 14 13 12 12 11 12 16 19 18 19 17 13 18 26 22 18 21 22 22 25 24 20 20 22 23 23 23 23 22 23 24 24 25 26 24 21 19 18 18 19 22 25
28 31 32 31 31 28 25 27 31 32 32 32 31 29 28 27 23 20 20 18 17 22 24 22 24 22 14 10 13 17 19 19 19 20 20 17 12 11 16 22 21 16 12 12 12 11 11 13 13 12 12 12 15 19 18 18 18 16 17 22 17 13 15 16 18 23 24 21 18 18 21 23 24 24 23 23 23 23 24 25 25 24 23 21 20 19 21 24
28 30 30 28 27 27 24 24 27 28 30 32 32 31 29 28 27 24 22 17 13 16 19 21 25 24 18 22 24 23 19 16 14 14 15 15 13 12 12 14 16 16 13 12 12 11 10 13 11 10 11 11 12 15 15 14 15 13 14 19 19 15 14 14 16 20 20 18 16 16 19 22 23 23 23 24 23 23 22 24 25 26 25 22 18 17 20 23
26 26 27 26 26 27 26 24 24 25 25 26 28 29 29 30 29 26 23 20 13 12 16 18 21 23 22 26 27 25 22 21 18 16 18 18 18 20 19 17 19 20 15 12 14 14 11 12 11 9 11 12 12 13 12 11 12 9 12 19 19 15 13 13 15 19 19 18 17 18 20 22 22 22 22 22 22 22 22 23 25 27 28 26 21 18 19 22
24 25 26 27 26 27 26 25 26 26 26 25 24 25 28 31 32 30 28 26 23 19 16 14 16 22 22 22 24 23 20 20 20 21 21 18 15 19 23 22 20 19 14 13 16 17 13 12 13 12 13 13 14 14 12 12 13 12 15 20 17 13 12 11 13 17 19 19 18 17 20 21 21 21 21 20 20 21 22 23 24 26 29 29 28 25 22 21
24 25 25 26 26 26 25 26 28 29 28 28 27 26 28 29 30 31 31 31 30 27 22 16 14 19 20 19 21 17 10 15 20 19 18 16 17 18 19 19 17 15 13 13 15 17 16 15 16 17 16 13 12 15 15 15 15 13 16 19 16 15 14 11 13 18 18 18 18 17 19 20 20 21 21 19 19 19 20 21 22 25 27 27 29 28 25 22
Wind_Direction
32 28 25 22 18 14 8 4 2 360 359 359 1 2 3 1 359 357 355 353 351 349 348 345 342 336 327 316 301 287 272 266 272 279 274 273 277 277 275 273 268 265 264 265 268 276 271 258 205 145 135 138 132 80 11 32 29 12 28 41 64 103 120 130 136 137 117 124 143 145 141 132 105 110 110 55 319 329 334 353 8 9 6 357 2 359 352 360
26 24 21 17 12 6 1 357 354 352 351 351 352 353 355 354 353 351 348 346 345 344 343 341 339 333 325 314 302 288 273 266 265 265 266 270 272 271 272 267 264 263 257 256 255 255 222 209 185 154 155 156 145 107 42 19 31 12 27 44 45 49 69 100 115 114 97 124 147 152 146 129 94 99 74 20 336 329 340 356 14 15 9 4 1 356 352 357
20 19 16 12 7 1 357 352 351 348 347 347 348 350 350 350 349 346 344 342 340 340 339 338 335 330 323 312 301 289 274 264 257 255 259 263 263 263 265 262 261 258 252 250 245 239 205 194 184 168 174 170 151 125 106 38 51 5 26 43 35 35 51 75 91 103 90 115 147 148 145 139 115 107 70 11 355 350 343 333 344 351 351 355 353 354 354 356
15 13 11 7 2 358 354 351 349 347 346 346 347 348 348 348 346 343 341 338 337 337 337 335 332 328 321 310 298 290 275 260 253 253 255 257 258 258 258 257 256 253 251 249 243 236 205 197 193 177 179 170 152 133 138 69 60 17 33 36 25 36 57 70 72 77 73 96 155 143 153 192 177 141 300 295 326 350 335 323 322 327 337 344 340 351 357 352
11 8 6 1 358 355 352 350 348 346 345 345 347 347 347 346 343 341 338 336 335 335 335 333 330 326 318 308 294 286 275 263 256 252 251 252 255 255 255 254 253 251 249 247 242 231 206 200 195 181 180 175 167 141 116 345 56 50 35 25 16 35 49 61 60 52 47 12 134 142 178 214 209 218 271 271 281 310 321 324 320 318 326 330 331 346 353 346
5 3 0 357 355 352 349 348 346 345 344 345 346 346 345 343 341 339 336 335 334 335 334 332 329 324 317 306 292 283 274 265 258 251 248 249 251 252 253 251 249 247 245 244 239 229 207 199 197 188 183 182 180 144 91 275 206 103 40 4 356 23 27 14 24 45 45 20 338 181 201 222 221 224 258 267 268 279 299 315 314 309 312 317 326 342 348 342
358 357 355 353 352 349 347 345 344 343 344 345 345 345 344 342 340 337 335 334 334 335 334 332 328 323 316 306 295 285 272 266 264 256 247 246 249 251 250 248 246 243 240 240 238 229 210 203 197 187 185 190 178 135 112 264 235 180 173 240 315 1 2 342 340 13 26 12 337 332 229 249 269 240 264 274 277 279 283 301 303 295 309 319 320 335 340 335
350 350 349 349 349 347 344 343 343 343 343 344 344 344 342 340 338 337 336 335 335 335 334 331 328 323 316 307 300 286 272 267 265 258 249 244 245 249 248 246 243 240 237 236 236 227 210 209 204 195 194 197 182 147 157 221 239 203 192 238 259 321 338 331 336 335 349 347 338 353 322 306 16 28 305 301 297 295 287 286 289 286 309 319 310 319 326 325
343 343 343 344 345 344 342 342 342 343 343 344 344 342 341 339 338 336 336 335 335 335 333 331 328 324 317 310 301 285 277 272 261 254 250 243 241 244 245 243 242 239 237 235 234 227 216 214 213 210 205 203 193 168 169 193 234 221 201 230 249 273 287 303 325 315 322 316 306 326 311 300 316 310 324 332 319 313 304 288 282 278 295 307 298 298 317 327
336 337 337 338 340 341 340 340 341 342 343 344 343 341 340 339 337 336 336 335 336 335 334 332 330 327 320 312 300 287 280 273 262 252 248 243 239 239 241 241 240 239 239 236 233 232 225 208 204 211 203 201 198 182 173 186 219 221 204 218 253 251 238 269 316 314 318 304 285 300 298 294 300 305 322 337 325 319 319 304 289 279 284 291 283 283 302 321
331 332 331 333 336 337 338 339 340 342 343 343 342 341 339 338 337 336 336 336 336 335 335 334 331 327 320 312 300 289 278 270 264 254 248 243 238 236 237 238 238 238 238 238 236 235 225 204 211 216 206 209 208 200 195 189 196 211 210 215 258 257 240 236 255 286 299 295 287 284 287 294 302 308 313 324 320 315 319 312 295 278 274 278 266 270 286 300
327 327 326 329 331 334 336 337 339 341 342 342 341 340 339 338 337 336 337 336 337 336 335 333 330 326 318 311 301 292 281 270 264 257 250 244 239 235 235 235 236 235 235 237 237 237 228 214 222 216 201 217 220 220 219 197 193 214 220 208 234 262 268 263 246 252 270 279 289 285 285 291 296 301 309 318 317 313 314 310 299 270 255 271 263 262 277 283
324 324 323 325 328 331 333 335 338 340 341 341 340 340 338 338 337 337 337 337 337 336 334 331 328 324 317 309 302 294 284 274 265 258 253 246 240 235 232 233 234 234 233 234 233 235 230 222 228 214 200 217 218 223 227 209 203 217 230 229 232 263 283 291 284 279 299 315 307 300 292 281 283 293 300 303 307 315 317 308 301 266 248 271 265 258 264 265
322 322 321 323 325 328 331 334 337 338 340 340 340 339 338 337 336 337 337 337 337 335 332 329 327 325 317 310 305 297 288 277 266 259 254 248 242 236 232 229 231 233 232 234 232 232 227 223 227 215 210 220 214 215 217 210 214 213 224 241 242 255 281 297 300 299 312 316 304 307 302 283 276 286 287 283 285 305 324 318 296 269 262 269 259 254 255 258
320 320 321 322 324 327 330 333 336 338 340 340 339 338 337 337 336 337 337 337 337 334 331 328 327 327 322 314 309 301 292 280 269 261 255 249 242 237 232 228 228 229 231 233 232 232 229 227 227 215 220 228 220 220 218 208 215 214 220 246 244 246 273 287 292 295 302 302 300 311 309 292 279 281 281 276 275 286 316 326 299 283 281 263 248 248 249 256
319 320 320 320 323 326 330 334 336 338 339 339 338 337 336 336 336 336 337 337 337 334 330 329 330 330 325 320 315 308 297 285 272 262 254 247 241 235 232 228 225 225 228 230 231 231 229 229 227 219 224 229 223 224 224 218 211 204 215 254 250 241 255 270 276 285 294 294 291 300 310 302 290 282 273 268 268 275 298 316 299 301 301 258 238 242 246 250
318 319 318 319 322 326 330 334 336 337 338 337 337 336 336 335 335 336 336 336 337 334 330 331 333 333 330 325 320 316 308 298 283 264 252 245 240 233 229 227 225 223 223 225 228 229 227 227 226 223 223 221 219 217 219 216 189 145 281 274 265 247 236 245 263 273 278 283 282 282 299 306 296 279 269 262 263 271 286 300 294 296 297 262 234 234 241 241
318 318 317 318 322 326 330 334 336 336 336 336 336 335 335 335 335 336 335 336 337 335 331 333 336 334 334 331 328 333 328 319 303 276 253 241 237 229 222 219 221 219 219 217 212 217 222 223 221 221 217 210 210 197 196 207 170 85 279 266 265 255 236 222 234 253 261 268 274 267 268 285 290 281 277 269 262 269 281 290 291 289 294 275 238 230 232 234
317 318 318 318 322 326 330 333 335 335 335 336 335 334 334 334 335 335 335 335 334 333 332 334 336 334 335 336 338 343 337 331 324 295 247 225 223 219 211 202 199 190 194 198 188 186 183 199 204 198 198 199 208 194 176 186 190 199 225 236 250 254 245 229 230 255 267 267 272 265 254 262 278 281 281 278 268 267 276 283 290 292 297 285 242 228 226 228
316 317 319 320 323 327 329 332 334 334 334 334 334 334 333 333 334 334 333 332 332 334 332 330 333 336 337 338 338 338 336 344 342 303 230 210 200 202 201 187 180 169 168 185 189 167 137 157 175 181 207 192 212 234 185 175 222 220 211 218 235 243 242 238 242 278 282 272 269 261 254 256 266 273 276 279 275 271 274 276 287 296 294 278 240 224 221 222
315 316 320 322 324 327 329 332 332 333 333 333 334 333 332 333 333 333 331 330 332 332 328 328 337 342 342 341 337 335 337 350 343 296 213 207 193 198 207 192 179 164 166 186 186 153 130 146 162 167 210 184 193 246 216 197 232 235 223 223 233 242 245 248 256 278 278 267 254 247 250 254 254 262 269 273 275 275 276 273 282 295 289 272 235 216 214 217
312 316 320 322 325 328 329 331 331 332 332 332 333 332 331 332 331 331 331 331 331 330 328 333 339 340 343 346 344 340 335 342 344 317 223 211 203 206 212 202 187 168 169 174 163 159 147 142 180 193 217 194 203 232 221 209 237 254 249 234 236 247 248 252 257 270 276 265 255 246 244 247 248 256 265 270 275 276 275 272 277 288 298 284 233 212 212 214
311 314 318 322 325 327 328 330 330 331 331 331 332 330 329 330 330 329 330 332 331 328 325 324 330 343 352 353 347 343 333 337 348 336 240 186 211 223 207 203 192 160 146 146 155 199 184 146 257 246 239 199 211 231 230 227 260 270 252 228 226 251 263 277 277 279 282 272 266 262 248 240 249 262 265 266 273 275 273 269 270 275 292 295 235 216 215 216
309 311 316 321 323 326 327 328 329 330 330 330 330 329 329 330 329 327 331 335 333 330 326 327 340 351 353 351 349 351 339 336 344 346 25 134 197 244 218 194 189 162 139 146 168 209 196 177 238 251 236 213 218 238 244 252 260 243 272 269 250 273 293 291 277 269 276 277 273 273 264 253 257 267 267 263 267 274 272 262 261 264 273 295 248 223 218 217
306 309 313 317 321 324 325 326 328 328 328 329 328 328 328 327 326 327 331 335 337 338 338 344 352 349 344 344 348 351 340 335 343 348 33 100 160 242 240 196 188 174 143 148 165 193 197 195 234 267 266 240 225 236 236 237 229 179 41 2 279 249 225 255 267 263 271 279 272 270 270 264 260 263 266 264 265 272 273 261 256 258 262 275 242 226 223 220
303 306 309 313 318 321 323 325 326 326 327 327 326 326 326 325 326 328 328 331 336 335 336 346 344 334 337 341 347 350 343 352 351 330 52 71 136 155 257 204 166 121 124 150 173 216 236 236 261 266 233 212 219 231 228 223 207 155 162 231 229 212 183 208 250 252 253 266 267 267 268 262 252 251 258 261 261 263 267 265 262 259 259 254 227 227 228 223
301 303 306 310 313 317 320 322 323 324 324 324 323 323 323 323 325 328 328 329 330 329 333 346 343 334 340 347 351 351 347 354 343 317 52 72 125 111 68 215 167 128 136 168 193 237 291 309 307 67 196 213 222 232 235 221 190 177 208 227 225 216 204 207 229 240 243 252 260 267 270 266 256 243 246 255 253 253 259 268 278 273 263 257 239 232 230 221
298 300 302 305 308 313 316 319 321 321 321 321 320 319 320 321 324 326 326 327 331 334 334 343 346 335 336 346 346 340 336 333 335 337 153 143 120 105 79 58 144 134 144 166 126 70 360 345 355 82 193 231 234 244 267 230 185 201 223 238 238 227 232 245 255 261 262 254 252 264 271 270 262 240 226 239 245 249 258 263 273 276 267 258 251 239 233 223
296 297 298 300 304 307 311 316 318 317 318 317 316 317 317 317 321 323 322 323 328 333 327 333 352 343 331 336 332 328 324 307 319 85 207 105 97 110 92 93 122 113 113 97 77 46 5 353 304 190 195 257 256 272 304 294 213 225 235 251 263 258 255 262 264 262 262 255 252 263 269 269 269 248 220 224 238 248 258 260 258 260 261 255 245 235 231 227
293 294 295 296 298 301 306 311 312 313 314 313 312 313 312 313 318 320 319 320 328 335 323 321 357 355 328 323 319 320 328 309 326 326 264 121 148 148 121 153 139 106 101 95 74 10 351 347 279 228 269 285 271 261 278 270 255 254 251 260 272 275 265 261 268 267 263 262 263 277 281 274 271 256 228 227 239 249 256 259 254 250 253 255 244 231 224 226
289 290 290 292 293 295 300 303 307 308 307 309 308 306 308 310 311 313 315 316 324 342 336 328 0 359 342 342 337 334 351 356 346 311 279 197 169 148 145 174 163 126 139 148 87 4 341 342 291 252 267 288 273 231 250 260 265 268 271 285 282 273 277 280 301 297 280 289 334 311 308 289 274 266 244 234 235 240 249 252 251 248 248 254 250 238 227 224
287 286 286 287 288 290 293 296 300 301 302 304 302 301 304 303 307 314 310 308 315 345 344 333 330 348 354 351 342 343 349 349 339 335 351 207 176 166 150 137 186 6 191 151 82 11 333 340 341 317 300 291 282 259 253 255 276 285 212 289 279 253 215 172 274 307 321 8 17 253 252 257 264 269 262 246 235 236 243 245 245 245 242 244 247 246 238 231
284 283 283 283 284 286 287 290 293 295 296 297 297 296 297 298 307 305 293 313 336 317 316 308 295 319 346 322 318 352 350 328 326 360 29 31 62 82 347 356 348 336 145 137 100 58 312 324 330 319 321 31 311 302 280 271 289 270 216 264 292 257 197 166 193 221 229 229 216 226 236 239 246 254 258 256 247 241 242 243 245 244 241 236 237 244 247 244
281 281 281 280 281 281 283 286 287 288 290 291 292 290 291 288 284 286 296 15 354 300 300 300 294 316 332 285 320 22 19 341 4 28 335 8 76 71 313 301 177 174 166 146 129 147 193 305 306 299 305 297 303 305 289 273 257 251 260 277 337 258 221 192 197 203 211 220 216 232 252 251 245 247 254 258 256 252 249 248 248 246 246 244 240 241 245 249
279 279 278 277 278 278 279 281 281 283 284 285 288 286 284 278 268 277 306 85 197 265 295 314 313 339 4 330 334 71 52 359 347 12 328 278 100 133 242 246 183 192 196 173 167 165 164 224 246 267 291 287 296 301 273 256 238 236 271 263 236 251 239 216 215 214 218 225 230 262 263 257 252 253 261 261 255 257 254 249 247 246 246 245 242 242 243 246
277 276 276 275 275 275 275 276 276 278 278 279 284 281 275 272 266 265 246 207 236 246 274 304 307 343 6 353 332 332 7 340 316 341 322 205 134 200 235 237 218 250 202 198 225 192 171 202 215 233 279 291 313 313 261 227 232 245 284 271 263 276 264 240 231 226 225 224 227 271 261 253 253 256 264 264 257 255 252 247 245 243 242 240 238 239 243 247
275 274 273 272 272 272 272 272 272 273 273 276 278 273 268 266 261 256 247 236 241 241 247 273 289 315 32 11 317 302 319 333 324 354 253 204 179 225 251 266 264 262 243 220 238 237 212 207 203 219 280 307 330 319 279 237 239 263 274 285 293 282 272 258 243 236 232 228 225 243 252 254 255 255 259 259 255 255 251 247 244 241 241 240 237 239 242 244
275 273 271 270 269 269 268 268 269 269 270 273 272 267 266 263 257 261 268 273 264 244 232 229 244 236 107 98 307 295 311 332 313 303 208 253 249 241 264 284 279 260 246 234 232 237 225 208 211 226 324 322 324 330 304 288 285 269 257 276 281 269 268 275 269 252 242 239 233 232 243 252 251 251 258 258 255 256 253 249 245 241 243 243 240 246 246 241
274 271 269 268 266 265 265 265 266 267 268 269 265 261 259 257 254 255 264 269 267 260 242 221 223 191 115 108 297 266 223 253 293 276 197 257 273 274 267 273 275 248 226 233 231 227 212 199 207 197 160 306 331 332 296 295 298 278 245 260 277 279 292 306 295 282 267 259 238 226 237 248 247 250 263 268 266 267 258 249 245 241 241 242 243 253 256 242
272 270 268 267 263 262 263 263 263 265 265 263 259 257 256 258 261 258 259 264 259 254 244 218 213 195 169 182 203 214 217 225 248 244 235 250 265 271 265 263 267 248 218 225 230 224 212 203 211 214 183 162 297 269 263 270 277 280 275 274 280 289 298 298 295 291 284 273 250 231 237 246 250 256 263 265 270 280 271 254 250 245 240 240 239 246 254 245
273 269 267 265 260 260 262 261 260 260 259 258 256 256 254 254 256 250 247 269 261 244 236 228 233 231 200 195 200 218 240 246 256 260 260 262 264 270 272 269 276 266 221 223 236 235 227 215 219 224 201 185 247 272 275 270 267 270 272 274 278 279 281 283 284 288 286 279 270 253 246 249 254 262 267 263 266 279 285 272 261 254 246 242 240 238 240 239
275 270 269 269 262 258 260 259 257 257 255 256 255 252 250 247 245 238 235 252 252 234 237 238 241 249 235 219 214 219 234 238 241 269 277 271 266 266 268 269 289 294 242 232 247 247 240 229 221 228 223 226 262 294 288 280 282 282 280 282 282 277 275 275 276 282 285 283 277 265 259 259 259 262 268 271 271 276 283 278 266 262 255 246 246 242 233 229
275 271 270 270 263 255 255 254 252 252 249 249 249 248 250 247 243 239 236 246 253 247 244 241 237 242 246 241 225 220 236 241 224 205 231 244 251 261 269 279 289 278 252 244 258 263 259 254 242 240 236 237 247 233 249 275 287 288 288 296 295 285 280 280 281 282 280 276 272 268 269 269 266 265 267 271 273 271 280 284 266 259 257 248 247 248 240 232
274 272 270 269 265 256 253 250 247 247 245 243 244 244 248 248 246 244 237 240 252 254 248 245 246 242 240 244 232 217 233 240 216 210 225 237 251 266 277 288 286 269 252 244 254 261 264 266 261 258 237 216 220 219 238 260 263 275 289 297 302 299 293 290 286 280 276 273 271 272 273 271 268 268 268 267 265 259 268 288 275 255 255 251 247 247 247 243
273 272 270 268 265 256 250 247 244 244 243 241 241 239 241 243 246 251 249 244 247 253 252 246 245 239 231 238 236 220 221 221 212 218 227 239 260 272 274 276 267 259 256 251 248 248 256 262 261 264 242 205 218 228 239 252 259 276 286 283 288 295 295 294 291 288 289 286 282 280 276 272 270 268 267 266 263 257 262 276 279 263 257 254 251 247 243 244
271 270 267 265 262 253 248 247 245 244 243 242 242 242 245 247 248 253 258 253 242 246 251 246 244 244 235 237 239 230 226 222 218 229 231 231 250 267 272 273 262 253 262 264 250 241 251 265 267 266 247 214 223 234 241 246 248 265 278 275 274 280 285 292 300 300 295 290 288 285 277 275 274 272 271 268 266 264 264 268 270 265 259 254 256 254 243 239
268 266 263 263 265 260 252 248 245 241 240 242 242 242 246 249 245 238 249 257 244 240 247 245 242 242 233 248 269 254 239 231 224 229 238 241 252 268 276 276 270 267 266 258 245 240 250 261 263 265 257 232 227 228 233 241 239 245 271 277 277 273 273 282 294 296 295 296 294 287 281 279 276 274 274 272 270 270 267 266 264 259 257 259 263 262 250 241
264 263 263 267 271 272 264 253 246 239 235 236 237 237 239 242 235 220 227 250 249 237 239 238 242 245 222 213 254 251 238 240 240 235 239 249 262 271 274 274 272 271 268 251 237 232 244 257 261 264 261 248 238 238 245 252 244 236 259 280 286 276 266 271 276 282 291 300 297 291 289 286 281 279 278 275 273 270 265 264 261 255 254 260 268 266 256 247
263 264 267 270 272 272 267 257 253 248 241 237 236 235 234 236 238 228 219 228 241 241 241 238 244 250 220 199 222 236 228 232 248 246 236 233 231 232 249 272 280 282 289 284 260 244 250 260 259 262 263 258 254 257 264 267 258 252 273 288 286 274 270 275 274 281 296 304 301 297 294 289 287 285 281 277 274 271 267 263 259 253 251 258 269 267 259 254
265 263 264 264 262 261 260 253 250 247 243 241 241 241 237 233 236 234 219 210 217 243 258 257 254 250 230 216 231 242 233 226 226 231 237 234 227 231 241 259 275 281 292 295 277 269 270 262 253 251 254 252 252 256 258 261 268 273 271 274 279 282 281 278 277 287 297 300 302 304 298 294 291 283 277 276 273 268 265 264 261 255 250 253 261 268 266 257
263 258 258 259 258 257 258 253 246 240 236 238 239 240 240 236 233 233 223 213 215 223 237 258 268 257 240 228 234 239 241 245 237 230 241 250 246 243 244 248 261 271 274 272 271 274 279 277 273 267 258 253 253 255 254 252 257 260 260 265 279 290 284 278 280 286 292 298 305 308 302 299 294 284 280 278 273 265 262 264 265 258 252 253 255 261 270 261
261 258 257 259 258 257 254 250 245 240 233 231 231 232 235 235 236 237 233 227 226 224 217 213 233 251 249 240 237 230 237 270 264 241 235 253 268 266 253 244 252 259 253 250 261 271 276 279 280 277 274 272 261 255 259 260 252 249 258 267 273 278 279 283 285 285 293 303 307 307 303 299 294 287 283 278 273 266 259 262 267 261 255 257 257 257 265 265
Height
5908 5908 5908 5907 5907 5906 5906 5906 5905 5905 5905 5904 5904 5903 5903 5902 5901 5901 5900 5899 5898 5897 5896 5895 5895 5893 5892 5891 5891 5891 5891 5891 5891 5891 5890 5890 5890 5890 5890 5890 5890 5890 5890 5890 5891 5891 5891 5891 5891 5891 5892 5893 5893 5893 5893 5894 5894 5893 5894 5893 5893 5893 5894 5895 5895 5896 5897 5898 5899 5899 5900 5901 5902 5902 5903 5903 5903 5903 5903 5902 5902 5902 5901 5900 5900 5899 5899 5900
5908 5908 5908 5907 5907 5906 5906 5905 5905 5904 5904 5904 5903 5903 5902 5902 5901 5900 5899 5898 5897 5896 5895 5894 5893 5892 5891 5890 5889 5889 5889 5890 5889 5888 5888 5889 5889 5889 5889 5889 5889 5890 5890 5890 5890 5891 5891 5891 5891 5891 5891 5892 5893 5893 5892 5895 5896 5894 5894 5894 5894 5895 5895 5895 5896 5896 5898 5899 5899 5900 5901 5902 5902 5903 5903 5903 5904 5903 5903 5902 5902 5902 5901 5901 5901 5900 5900 5900
5908 5908 5907 5907 5906 5906 5905 5905 5904 5904 5903 5903 5903 5902 5902 5901 5900 5899 5898 5897 5896 5895 5894 5893 5892 5890 5889 5888 5887 5887 5887 5888 5886 5886 5887 5888 5887 5887 5888 5888 5889 5889 5889 5889 5889 5890 5891 5891 5891 5891 5891 5891 5893 5893 5893 5895 5896 5895 5894 5894 5895 5896 5895 5896 5896 5897 5898 5899 5900 5901 5901 5902 5903 5903 5903 5904 5904 5904 5903 5903 5903 5902 5902 5902 5901 5901 5901 5901
5908 5908 5907 5907 5906 5905 5905 5904 5904 5903 5903 5902 5902 5901 5901 5900 5899 5898 5897 5896 5895 5894 5892 5891 5890 5888 5887 5886 5885 5885 5885 5885 5884 5885 5886 5886 5886 5886 5887 5887 5888 5888 5888 5888 5889 5890 5890 5891 5891 5891 5891 5891 5892 5893 5894 5894 5894 5894 5893 5895 5896 5897 5897 5897 5897 5898 5899 5899 5900 5901 5902 5902 5903 5903 5904 5904 5904 5903 5903 5903 5903 5903 5902 5902 5902 5902 5902 5902
5908 5908 5907 5907 5906 5905 5905 5904 5903 5903 5902 5902 5901 5901 5900 5899 5898 5897 5896 5895 5894 5892 5891 5889 5887 5886 5885 5884 5883 5883 5883 5882 5882 5883 5884 5884 5885 5885 5885 5886 5886 5887 5887 5887 5888 5889 5890 5890 5890 5891 5891 5891 5891 5892 5893 5894 5894 5895 5895 5896 5897 5898 5898 5897 5898 5899 5900 5900 5900 5901 5901 5902 5903 5903 5904 5904 5904 5903 5903 5903 5903 5903 5903 5902 5902 5902 5902 5902
5908 5908 5907 5906 5906 5905 5904 5904 5903 5902 5902 5901 5901 5900 5899 5898 5897 5896 5894 5893 5892 5890 5889 5887 5885 5884 5882 5882 5881 5881 5881 5880 5880 5881 5881 5882 5883 5883 5884 5885 5885 5886 5886 5886 5887 5888 5889 5889 5890 5890 5890 5891 5891 5892 5893 5894 5895 5895 5896 5896 5897 5898 5898 5898 5899 5900 5901 5901 5901 5900 5901 5903 5903 5902 5903 5903 5904 5903 5903 5903 5903 5903 5902 5902 5902 5903 5903 5903
5908 5907 5907 5906 5905 5905 5904 5903 5902 5902 5901 5900 5900 5899 5898 5897 5896 5894 5893 5892 5890 5889 5887 5885 5883 5881 5880 5880 5879 5880 5879 5878 5879 5879 5879 5880 5881 5882 5883 5883 5884 5884 5885 5885 5886 5887 5888 5889 5889 5890 5890 5890 5891 5892 5894 5894 5894 5895 5896 5897 5897 5898 5899 5898 5899 5900 5902 5902 5901 5901 5902 5903 5902 5902 5903 5903 5903 5903 5903 5903 5902 5903 5902 5902 5902 5903 5903 5903
5907 5907 5906 5905 5905 5904 5903 5903 5902 5901 5900 5899 5899 5898 5897 5896 5894 5893 5892 5890 5888 5887 5885 5883 5881 5880 5879 5878 5878 5878 5877 5877 5877 5877 5877 5878 5879 5880 5881 5882 5882 5883 5883 5884 5884 5886 5887 5887 5888 5889 5889 5890 5890 5891 5894 5894 5893 5894 5896 5896 5896 5898 5899 5899 5899 5900 5901 5901 5900 5901 5903 5904 5903 5902 5902 5902 5903 5902 5903 5902 5902 5902 5902 5902 5902 5902 5903 5903
5907 5906 5905 5905 5904 5903 5902 5902 5901 5900 5899 5899 5898 5897 5896 5894 5893 5891 5890 5888 5887 5885 5883 5881 5879 5878 5877 5876 5876 5876 5875 5875 5875 5875 5876 5876 5877 5878 5879 5880 5881 5881 5882 5882 5883 5884 5885 5886 5887 5888 5889 5890 5890 5891 5892 5894 5893 5894 5895 5895 5896 5899 5900 5899 5899 5899 5900 5900 5900 5901 5903 5903 5903 5902 5902 5902 5902 5902 5902 5902 5902 5902 5902 5902 5902 5902 5902 5902
5906 5905 5904 5904 5903 5902 5901 5901 5900 5899 5898 5897 5897 5895 5894 5893 5892 5890 5889 5887 5885 5883 5881 5879 5878 5877 5876 5875 5875 5874 5874 5873 5873 5874 5874 5874 5875 5876 5877 5878 5879 5880 5881 5881 5882 5883 5884 5886 5887 5887 5888 5889 5889 5890 5891 5893 5893 5893 5894 5895 5895 5898 5900 5900 5900 5900 5899 5900 5901 5901 5902 5902 5902 5902 5903 5902 5902 5901 5902 5902 5902 5902 5902 5902 5902 5902 5902 5902
5905 5904 5903 5903 5902 5901 5900 5900 5899 5898 5897 5896 5895 5894 5893 5892 5890 5889 5887 5885 5883 5881 5879 5878 5876 5876 5874 5874 5873 5873 5872 5872 5872 5872 5872 5873 5874 5875 5876 5877 5877 5878 5879 5880 5880 5881 5883 5885 5885 5886 5887 5887 5888 5889 5889 5890 5891 5891 5892 5894 5894 5895 5898 5901 5901 5900 5899 5900 5901 5902 5901 5901 5901 5902 5902 5902 5902 5901 5901 5901 5901 5901 5902 5902 5902 5902 5902 5902
5904 5903 5902 5902 5901 5900 5899 5899 5898 5897 5896 5895 5894 5893 5892 5890 5889 5887 5886 5884 5882 5880 5878 5877 5875 5874 5873 5872 5872 5871 5871 5871 5870 5870 5871 5871 5872 5873 5874 5875 5876 5877 5878 5878 5879 5880 5882 5883 5883 5885 5887 5887 5888 5889 5889 5889 5891 5891 5891 5893 5894 5894 5896 5899 5901 5901 5901 5901 5901 5901 5901 5901 5901 5901 5902 5902 5901 5900 5900 5900 5900 5900 5901 5902 5902 5902 5902 5902
5903 5902 5901 5901 5900 5899 5898 5898 5897 5896 5895 5894 5893 5892 5890 5889 5887 5886 5884 5882 5880 5878 5877 5875 5874 5873 5872 5871 5870 5869 5869 5869 5869 5869 5869 5870 5870 5871 5872 5873 5874 5875 5876 5877 5878 5879 5881 5882 5883 5885 5886 5886 5887 5889 5889 5890 5890 5890 5891 5892 5893 5894 5894 5896 5898 5899 5900 5901 5900 5900 5900 5900 5900 5900 5901 5901 5900 5900 5900 5900 5900 5900 5901 5902 5902 5902 5902 5901
5902 5901 5900 5900 5899 5898 5897 5896 5896 5895 5894 5893 5892 5890 5889 5888 5886 5884 5883 5881 5879 5877 5875 5874 5873 5872 5870 5869 5868 5868 5868 5867 5868 5868 5868 5868 5869 5870 5871 5872 5873 5874 5875 5875 5877 5878 5879 5880 5882 5884 5884 5884 5886 5887 5888 5889 5890 5891 5891 5891 5892 5894 5894 5894 5895 5897 5898 5899 5899 5899 5899 5899 5900 5900 5900 5901 5900 5900 5900 5900 5900 5900 5900 5901 5901 5901 5901 5901
5901 5900 5899 5899 5898 5897 5896 5895 5894 5894 5893 5891 5890 5889 5888 5886 5885 5883 5881 5879 5878 5876 5874 5873 5872 5871 5869 5868 5867 5867 5866 5866 5866 5866 5866 5867 5867 5868 5869 5870 5871 5872 5873 5874 5875 5877 5878 5879 5880 5882 5883 5883 5885 5886 5888 5889 5889 5891 5891 5891 5891 5892 5893 5894 5894 5895 5896 5898 5898 5899 5899 5899 5899 5899 5899 5899 5900 5900 5900 5900 5899 5899 5899 5900 5901 5901 5901 5901
5900 5899 5898 5897 5897 5896 5895 5894 5893 5892 5891 5890 5889 5888 5886 5885 5883 5882 5880 5878 5876 5875 5873 5872 5871 5869 5868 5867 5867 5866 5865 5865 5865 5865 5865 5866 5866 5867 5867 5869 5870 5871 5872 5873 5874 5875 5877 5878 5879 5881 5882 5883 5885 5886 5887 5888 5888 5890 5890 5890 5890 5892 5893 5894 5894 5894 5895 5896 5897 5898 5898 5898 5898 5898 5899 5898 5898 5899 5899 5899 5898 5898 5898 5899 5900 5900 5901 5901
5899 5898 5897 5896 5895 5895 5894 5893 5892 5891 5890 5889 5888 5886 5885 5883 5882 5880 5879 5877 5875 5874 5873 5871 5870 5868 5867 5866 5866 5865 5865 5864 5864 5864 5864 5865 5865 5866 5866 5867 5868 5869 5871 5872 5873 5874 5875 5876 5878 5879 5881 5882 5884 5886 5887 5887 5887 5888 5889 5889 5889 5891 5892 5893 5893 5893 5894 5895 5896 5897 5897 5897 5897 5897 5898 5898 5897 5897 5898 5898 5898 5898 5898 5898 5899 5899 5900 5901
5898 5897 5896 5895 5894 5893 5893 5892 5891 5890 5889 5888 5886 5885 5883 5882 5880 5879 5877 5876 5874 5873 5871 5870 5869 5867 5866 5866 5865 5864 5864 5864 5864 5864 5864 5864 5864 5865 5866 5866 5867 5869 5870 5871 5872 5873 5874 5875 5877 5878 5880 5881 5882 5884 5885 5885 5885 5887 5889 5889 5888 5889 5890 5892 5892 5891 5892 5893 5894 5895 5896 5896 5896 5896 5897 5897 5897 5896 5897 5897 5897 5897 5897 5897 5898 5898 5899 5900
5896 5896 5895 5894 5893 5892 5891 5890 5889 5888 5887 5886 5885 5884 5882 5881 5879 5878 5876 5875 5873 5872 5870 5870 5868 5867 5866 5864 5864 5864 5864 5863 5863 5863 5863 5863 5864 5864 5865 5866 5867 5868 5869 5870 5871 5872 5873 5875 5876 5877 5878 5878 5880 5881 5882 5884 5885 5884 5887 5888 5887 5887 5888 5890 5891 5891 5891 5892 5893 5894 5895 5896 5896 5896 5896 5895 5896 5896 5896 5896 5896 5896 5896 5896 5897 5897 5898 5899
5895 5895 5894 5893 5892 5891 5890 5889 5888 5887 5886 5885 5884 5882 5881 5880 5878 5877 5875 5874 5873 5871 5870 5869 5868 5866 5865 5864 5863 5863 5863 5863 5863 5863 5863 5863 5863 5864 5865 5865 5866 5867 5868 5869 5870 5870 5872 5874 5875 5876 5876 5876 5879 5880 5880 5881 5881 5881 5884 5885 5885 5885 5886 5889 5891 5891 5890 5890 5891 5892 5893 5895 5895 5895 5895 5894 5894 5895 5895 5895 5895 5895 5895 5895 5895 5896 5897 5898
5894 5893 5893 5892 5891 5890 5889 5888 5887 5886 5885 5884 5882 5881 5880 5879 5877 5876 5874 5873 5871 5871 5870 5868 5866 5865 5865 5864 5863 5863 5863 5863 5863 5863 5863 5863 5863 5864 5864 5865 5865 5866 5867 5868 5869 5869 5871 5873 5874 5874 5875 5875 5877 5878 5878 5879 5879 5879 5882 5883 5883 5883 5884 5888 5890 5890 5888 5888 5889 5890 5892 5894 5894 5894 5893 5893 5893 5893 5894 5894 5894 5894 5894 5894 5895 5895 5897 5898
5893 5892 5891 5890 5889 5889 5888 5887 5885 5884 5883 5882 5881 5880 5879 5877 5876 5875 5873 5872 5871 5870 5869 5867 5866 5866 5865 5864 5863 5863 5863 5862 5862 5862 5862 5863 5863 5863 5864 5865 5865 5866 5867 5867 5868 5869 5870 5871 5871 5872 5873 5874 5875 5876 5877 5877 5877 5879 5880 5882 5883 5883 5883 5886 5888 5887 5886 5885 5886 5888 5891 5892 5892 5892 5892 5892 5892 5892 5892 5892 5892 5893 5893 5893 5894 5895 5896 5897
5892 5891 5890 5889 5888 5887 5886 5885 5884 5883 5882 5881 5880 5878 5877 5876 5875 5873 5872 5871 5870 5869 5868 5867 5866 5865 5865 5864 5864 5863 5863 5862 5862 5862 5862 5862 5863 5863 5864 5865 5865 5865 5866 5867 5868 5869 5869 5869 5870 5871 5872 5873 5874 5874 5875 5876 5877 5878 5879 5881 5882 5882 5882 5884 5885 5885 5884 5883 5884 5886 5888 5890 5890 5891 5891 5891 5891 5891 5891 5891 5891 5891 5892 5892 5893 5894 5895 5896
5890 5889 5889 5888 5887 5886 5885 5884 5883 5882 5880 5879 5878 5877 5876 5875 5873 5872 5871 5870 5869 5868 5867 5866 5865 5864 5864 5864 5863 5863 5863 5862 5862 5862 5862 5862 5862 5863 5863 5864 5864 5864 5865 5867 5867 5868 5868 5868 5869 5870 5871 5872 5873 5874 5875 5875 5877 5878 5878 5879 5881 5881 5881 5882 5882 5883 5883 5883 5883 5884 5886 5888 5889 5889 5889 5890 5890 5890 5890 5889 5890 5890 5890 5891 5892 5893 5894 5895
5889 5888 5887 5886 5885 5884 5883 5882 5881 5880 5879 5878 5877 5876 5874 5873 5872 5871 5870 5870 5869 5868 5867 5866 5865 5865 5864 5864 5863 5863 5863 5862 5862 5862 5862 5862 5862 5863 5863 5863 5864 5864 5864 5866 5867 5867 5867 5868 5869 5870 5871 5872 5873 5873 5873 5875 5876 5877 5878 5879 5879 5879 5880 5880 5880 5881 5882 5882 5882 5883 5885 5886 5887 5887 5887 5888 5889 5889 5889 5888 5888 5889 5889 5889 5891 5892 5893 5894
5887 5886 5885 5885 5884 5883 5882 5881 5880 5879 5878 5877 5876 5874 5873 5872 5871 5870 5869 5868 5868 5868 5867 5866 5865 5865 5865 5864 5863 5863 5862 5862 5862 5862 5862 5862 5862 5862 5863 5863 5863 5863 5864 5866 5867 5867 5867 5868 5869 5870 5871 5871 5871 5871 5872 5874 5875 5875 5876 5875 5875 5877 5878 5878 5878 5878 5879 5880 5880 5882 5882 5883 5884 5884 5886 5887 5888 5888 5888 5888 5888 5888 5888 5888 5890 5891 5892 5893
5885 5884 5884 5883 5882 5881 5880 5879 5878 5877 5876 5875 5874 5873 5872 5871 5870 5869 5867 5867 5867 5866 5866 5865 5864 5864 5864 5863 5863 5862 5862 5862 5863 5862 5862 5862 5862 5863 5863 5863 5863 5863 5864 5866 5867 5867 5867 5868 5869 5869 5870 5870 5869 5869 5869 5871 5873 5873 5872 5870 5871 5874 5875 5874 5874 5875 5877 5878 5878 5879 5879 5880 5881 5882 5885 5886 5886 5887 5887 5887 5887 5887 5887 5888 5889 5890 5891 5892
5883 5883 5882 5881 5880 5879 5879 5878 5877 5876 5875 5874 5873 5872 5871 5870 5869 5868 5867 5866 5866 5865 5864 5864 5864 5863 5863 5862 5862 5862 5862 5862 5862 5863 5862 5863 5863 5863 5863 5863 5863 5863 5865 5866 5867 5868 5867 5868 5868 5869 5869 5869 5868 5868 5868 5870 5871 5870 5868 5867 5869 5873 5873 5873 5874 5875 5876 5876 5877 5877 5877 5877 5878 5880 5883 5884 5884 5885 5886 5886 5886 5886 5886 5887 5887 5888 5889 5890
5881 5880 5880 5879 5878 5878 5877 5876 5875 5874 5874 5873 5872 5871 5870 5869 5868 5867 5866 5865 5865 5865 5864 5864 5864 5863 5863 5862 5862 5862 5862 5862 5862 5863 5862 5863 5863 5863 5863 5863 5863 5864 5865 5866 5867 5868 5867 5867 5867 5868 5869 5868 5867 5868 5869 5869 5870 5869 5868 5867 5869 5872 5873 5873 5874 5874 5874 5874 5876 5877 5876 5875 5875 5877 5880 5881 5883 5884 5884 5885 5885 5885 5885 5886 5886 5887 5888 5889
5879 5878 5878 5877 5876 5876 5875 5874 5873 5872 5872 5871 5870 5870 5869 5868 5867 5867 5866 5865 5864 5864 5863 5863 5864 5864 5863 5863 5862 5861 5861 5862 5862 5862 5863 5863 5863 5863 5863 5863 5863 5864 5865 5866 5866 5866 5866 5867 5867 5867 5868 5867 5866 5867 5867 5868 5868 5868 5868 5868 5869 5871 5871 5871 5872 5872 5873 5874 5875 5876 5875 5875 5873 5874 5877 5879 5881 5882 5883 5883 5884 5884 5885 5885 5886 5886 5887 5888
5876 5876 5875 5875 5874 5873 5873 5872 5872 5871 5870 5870 5869 5868 5868 5867 5866 5866 5865 5864 5863 5863 5862 5862 5863 5863 5862 5861 5861 5860 5860 5861 5862 5862 5862 5862 5863 5863 5863 5863 5863 5864 5865 5864 5865 5866 5865 5867 5867 5867 5868 5866 5865 5866 5866 5866 5867 5866 5867 5867 5868 5868 5868 5869 5870 5870 5871 5873 5874 5874 5874 5873 5871 5871 5874 5876 5878 5879 5881 5882 5882 5883 5884 5885 5885 5886 5886 5887
5873 5873 5873 5872 5872 5871 5871 5870 5869 5869 5868 5868 5868 5867 5866 5866 5865 5865 5864 5864 5864 5863 5863 5863 5862 5862 5862 5861 5861 5860 5861 5861 5861 5861 5861 5861 5862 5862 5862 5862 5862 5863 5864 5863 5864 5866 5865 5865 5866 5865 5866 5865 5864 5865 5865 5864 5864 5865 5865 5864 5865 5866 5867 5868 5869 5870 5871 5872 5873 5873 5871 5870 5870 5870 5872 5873 5875 5877 5879 5880 5880 5881 5882 5883 5884 5885 5885 5885
5870 5870 5870 5870 5869 5869 5868 5868 5867 5867 5866 5866 5866 5865 5865 5865 5864 5864 5863 5863 5864 5864 5864 5864 5862 5861 5862 5862 5861 5861 5861 5861 5861 5862 5861 5861 5861 5861 5861 5861 5862 5862 5863 5863 5864 5866 5867 5867 5866 5865 5864 5865 5864 5864 5864 5863 5863 5863 5863 5863 5864 5865 5865 5866 5867 5867 5868 5868 5869 5869 5868 5868 5868 5868 5869 5871 5873 5875 5876 5877 5878 5879 5879 5880 5881 5882 5884 5884
5867 5867 5867 5867 5867 5866 5866 5865 5865 5865 5864 5864 5864 5864 5864 5863 5863 5862 5862 5862 5863 5863 5863 5863 5861 5861 5862 5862 5861 5862 5861 5861 5862 5862 5862 5861 5861 5862 5863 5862 5862 5862 5863 5862 5862 5865 5867 5867 5867 5865 5864 5864 5864 5864 5864 5863 5863 5862 5862 5863 5864 5863 5863 5864 5864 5864 5865 5864 5865 5867 5867 5867 5867 5867 5867 5869 5871 5872 5873 5874 5876 5877 5878 5878 5878 5880 5881 5882
5864 5864 5864 5864 5864 5863 5863 5863 5863 5862 5862 5862 5862 5862 5862 5861 5861 5861 5861 5862 5863 5862 5861 5861 5861 5861 5861 5861 5861 5862 5862 5861 5861 5862 5862 5861 5860 5863 5863 5861 5861 5862 5863 5863 5862 5863 5865 5865 5866 5866 5864 5863 5863 5863 5863 5862 5862 5861 5861 5862 5861 5860 5861 5862 5863 5863 5862 5863 5865 5865 5865 5865 5866 5866 5866 5868 5869 5870 5871 5871 5873 5874 5876 5876 5877 5878 5879 5880
5860 5860 5860 5860 5860 5860 5860 5860 5860 5860 5860 5860 5860 5861 5860 5859 5860 5859 5859 5861 5862 5861 5861 5860 5860 5860 5860 5859 5859 5860 5862 5862 5860 5860 5861 5861 5860 5860 5861 5860 5861 5862 5863 5864 5863 5863 5863 5864 5865 5865 5863 5862 5862 5862 5861 5861 5861 5861 5860 5859 5859 5859 5859 5861 5862 5862 5861 5863 5865 5862 5861 5863 5864 5863 5864 5866 5867 5868 5868 5869 5870 5871 5872 5873 5874 5875 5876 5877
5856 5856 5856 5857 5857 5857 5857 5857 5857 5857 5857 5858 5858 5858 5857 5857 5858 5856 5856 5858 5859 5858 5860 5860 5859 5859 5859 5860 5860 5859 5861 5862 5860 5859 5860 5861 5860 5859 5858 5858 5860 5861 5862 5863 5862 5862 5863 5863 5863 5863 5862 5862 5862 5861 5859 5859 5860 5860 5859 5859 5859 5858 5858 5859 5860 5860 5860 5863 5864 5861 5859 5860 5861 5861 5862 5863 5864 5865 5866 5867 5868 5869 5870 5871 5871 5872 5873 5874
5852 5852 5852 5853 5854 5853 5853 5853 5854 5854 5855 5855 5856 5856 5855 5855 5855 5855 5854 5855 5856 5856 5859 5860 5858 5859 5860 5861 5861 5861 5861 5861 5859 5859 5859 5858 5859 5860 5859 5858 5858 5859 5860 5860 5861 5861 5862 5862 5862 5862 5862 5862 5862 5860 5858 5858 5859 5859 5858 5857 5856 5856 5857 5858 5859 5859 5860 5861 5862 5860 5857 5857 5858 5859 5860 5860 5861 5862 5863 5864 5865 5866 5867 5868 5869 5870 5870 5871
5847 5848 5847 5849 5850 5849 5849 5850 5850 5851 5852 5853 5853 5853 5853 5853 5853 5853 5853 5854 5855 5855 5856 5857 5857 5859 5860 5860 5862 5862 5861 5860 5859 5859 5859 5857 5857 5859 5859 5857 5856 5856 5858 5858 5859 5860 5861 5861 5860 5860 5861 5862 5861 5859 5858 5857 5857 5857 5857 5855 5853 5854 5856 5857 5857 5857 5858 5859 5860 5858 5855 5854 5856 5856 5857 5858 5858 5860 5861 5861 5862 5862 5863 5865 5866 5868 5869 5869
5843 5842 5841 5844 5846 5844 5845 5846 5847 5848 5849 5850 5850 5850 5850 5850 5850 5851 5851 5851 5852 5853 5854 5855 5855 5856 5857 5858 5859 5860 5859 5858 5858 5858 5858 5857 5856 5856 5855 5855 5855 5855 5856 5857 5856 5857 5858 5858 5857 5857 5859 5861 5860 5858 5858 5857 5856 5856 5856 5854 5853 5854 5854 5855 5854 5855 5855 5856 5857 5856 5854 5854 5855 5855 5856 5857 5856 5857 5858 5858 5859 5860 5861 5862 5863 5865 5866 5867
5838 5837 5834 5838 5842 5841 5840 5843 5843 5844 5845 5846 5847 5847 5847 5848 5848 5849 5848 5848 5849 5850 5851 5852 5852 5853 5854 5854 5855 5857 5857 5857 5857 5857 5856 5855 5855 5853 5851 5853 5854 5854 5855 5854 5853 5854 5855 5856 5856 5856 5857 5857 5856 5856 5856 5855 5855 5854 5853 5853 5853 5853 5852 5852 5852 5852 5853 5853 5854 5854 5853 5853 5854 5853 5853 5855 5855 5855 5854 5855 5857 5858 5859 5860 5861 5862 5863 5865
5832 5831 5829 5832 5838 5838 5836 5838 5839 5840 5842 5843 5844 5844 5844 5845 5845 5845 5845 5845 5846 5847 5848 5850 5850 5851 5852 5852 5853 5854 5853 5854 5855 5856 5855 5853 5851 5850 5849 5851 5853 5853 5853 5852 5850 5852 5854 5854 5854 5854 5855 5855 5855 5856 5855 5853 5853 5851 5850 5851 5850 5850 5849 5850 5851 5851 5851 5851 5851 5851 5850 5850 5851 5851 5851 5852 5853 5853 5853 5854 5855 5856 5857 5858 5859 5860 5861 5862
5827 5826 5825 5827 5831 5833 5832 5833 5834 5835 5838 5839 5840 5840 5840 5841 5842 5842 5842 5843 5843 5845 5846 5847 5847 5848 5849 5850 5852 5852 5850 5852 5854 5854 5853 5850 5848 5847 5848 5850 5851 5851 5850 5850 5850 5852 5852 5851 5852 5852 5853 5854 5856 5855 5853 5852 5851 5849 5848 5849 5848 5847 5847 5848 5848 5849 5849 5849 5848 5848 5848 5848 5848 5848 5849 5850 5851 5851 5851 5853 5853 5854 5855 5856 5857 5859 5860 5859
5821 5821 5821 5821 5825 5828 5828 5828 5829 5830 5833 5834 5835 5836 5837 5838 5839 5839 5839 5840 5840 5841 5843 5844 5845 5846 5847 5847 5849 5850 5848 5850 5852 5852 5850 5847 5847 5846 5846 5849 5849 5848 5847 5848 5849 5849 5849 5849 5851 5851 5852 5853 5853 5852 5850 5850 5850 5848 5848 5848 5847 5846 5845 5846 5846 5847 5847 5846 5846 5846 5846 5845 5845 5846 5846 5847 5849 5849 5849 5851 5852 5852 5852 5853 5854 5856 5857 5857
5816 5817 5817 5816 5819 5822 5821 5821 5823 5825 5828 5829 5830 5831 5832 5833 5834 5835 5836 5837 5838 5838 5839 5841 5842 5843 5844 5844 5845 5847 5846 5846 5847 5847 5847 5846 5846 5845 5844 5845 5847 5845 5845 5846 5846 5846 5846 5847 5848 5849 5851 5851 5850 5849 5849 5849 5849 5849 5848 5847 5846 5845 5843 5843 5844 5845 5844 5844 5843 5843 5842 5841 5842 5844 5844 5845 5846 5846 5846 5848 5850 5850 5850 5850 5850 5852 5854 5856
5812 5812 5812 5810 5812 5815 5816 5816 5818 5821 5823 5825 5826 5827 5829 5830 5832 5832 5832 5835 5836 5835 5836 5838 5839 5840 5841 5841 5842 5843 5844 5845 5845 5844 5844 5844 5844 5843 5841 5842 5844 5844 5843 5843 5844 5844 5844 5844 5845 5846 5848 5849 5848 5848 5847 5847 5848 5849 5847 5845 5845 5844 5842 5840 5841 5841 5841 5841 5841 5840 5839 5839 5839 5841 5842 5843 5843 5844 5844 5845 5847 5848 5847 5847 5848 5849 5851 5853
5807 5807 5806 5805 5807 5811 5813 5813 5814 5816 5818 5819 5821 5824 5825 5827 5830 5830 5830 5831 5832 5832 5833 5834 5835 5837 5839 5840 5841 5841 5841 5842 5842 5842 5842 5843 5843 5842 5841 5840 5841 5842 5842 5841 5842 5842 5842 5842 5843 5843 5845 5846 5846 5845 5845 5845 5846 5847 5845 5842 5842 5843 5842 5840 5840 5838 5837 5838 5838 5837 5836 5836 5837 5838 5839 5840 5840 5840 5841 5842 5843 5845 5845 5845 5846 5847 5848 5850
5802 5801 5801 5803 5804 5807 5810 5810 5808 5810 5812 5814 5816 5819 5821 5823 5825 5827 5827 5828 5829 5829 5830 5831 5832 5833 5836 5838 5839 5839 5838 5838 5840 5840 5841 5841 5841 5841 5840 5838 5837 5839 5840 5840 5840 5840 5840 5840 5840 5840 5841 5843 5843 5843 5842 5842 5842 5843 5842 5840 5839 5840 5840 5840 5839 5836 5835 5836 5836 5835 5834 5833 5834 5835 5836 5836 5837 5837 5838 5839 5840 5842 5842 5842 5843 5844 5846 5847
5797 5797 5798 5801 5802 5802 5804 5806 5805 5806 5808 5810 5811 5814 5817 5818 5820 5823 5824 5825 5827 5827 5828 5829 5829 5830 5833 5834 5834 5835 5835 5836 5837 5838 5838 5839 5839 5839 5838 5836 5835 5836 5837 5837 5837 5838 5838 5837 5838 5839 5839 5840 5840 5840 5840 5840 5840 5841 5840 5838 5837 5837 5838 5838 5836 5834 5833 5834 5833 5833 5831 5830 5832 5833 5833 5833 5833 5834 5835 5836 5837 5838 5838 5838 5840 5842 5843 5844
5793 5794 5794 5796 5797 5797 5799 5801 5802 5803 5805 5807 5809 5811 5813 5815 5816 5819 5821 5822 5824 5825 5826 5826 5827 5828 5830 5831 5830 5831 5832 5833 5834 5835 5834 5835 5837 5837 5836 5836 5835 5835 5836 5835 5834 5835 5836 5835 5836 5837 5837 5837 5838 5838 5838 5839 5839 5839 5838 5836 5835 5835 5835 5835 5834 5832 5831 5831 5831 5831 5829 5828 5829 5829 5828 5829 5830 5831 5832 5832 5833 5834 5834 5836 5837 5838 5840 5841
5789 5789 5789 5791 5792 5793 5795 5796 5798 5799 5800 5803 5805 5807 5809 5811 5812 5814 5816 5817 5818 5820 5822 5823 5824 5824 5825 5827 5827 5828 5830 5831 5832 5832 5832 5833 5834 5834 5835 5835 5834 5834 5835 5834 5832 5833 5833 5833 5834 5834 5834 5834 5835 5835 5835 5835 5835 5836 5835 5833 5833 5833 5832 5832 5832 5830 5829 5829 5829 5829 5827 5825 5826 5825 5825 5826 5826 5827 5828 5829 5830 5830 5831 5832 5833 5835 5836 5837
5783 5783 5785 5787 5788 5790 5791 5792 5793 5794 5796 5798 5800 5802 5804 5806 5808 5809 5811 5813 5814 5815 5817 5818 5820 5821 5821 5823 5824 5826 5829 5830 5830 5830 5830 5831 5831 5831 5832 5833 5833 5833 5833 5833 5831 5831 5831 5831 5831 5831 5831 5831 5832 5832 5831 5831 5831 5832 5832 5831 5831 5830 5829 5830 5829 5827 5827 5827 5827 5826 5825 5823 5823 5823 5823 5823 5823 5824 5825 5826 5826 5827 5827 5829 5829 5831 5832 5834